Pittsfield, IL

2:20 AM CDT on July 23, 2017 (GMT -0500)
Pittsfield Penstone Municipal

Weather History for KPPQ - April, 2014

Change the Weather History Date:

Saturday, April 26, 2014

  Actual Average (KUIN) Record (KUIN)
Temperature  
Mean Temperature 68 °F -  
Max Temperature 80 °F 70 °F 90 °F (1989)
Min Temperature 57 °F 48 °F 29 °F (1950)
Cooling Degree Days 4    
Growing Degree Days 18 (Base 50)    
Moisture  
Dew Point 43 °F    
Average Humidity 42    
Maximum Humidity 61    
Minimum Humidity 22    
Precipitation  
Precipitation 0.00 in - - ()
Sea Level Pressure  
Sea Level Pressure 29.85 in    
Wind  
Wind Speed 6 mph (South)    
Max Wind Speed 15 mph    
Max Gust Speed 20 mph    
Visibility 10 miles    
Events Rain , Thunderstorm    
Averages and records for this station are not official NWS values.
T = Trace of Precipitation, MM = Missing Value Source: NWS Daily Summary

Daily Weather History Graph

Daily Weather History Graph

Search for Another Location

Airport or City:

Trip Planner

Search our weather history database for the weather conditions in past years. The results will help you decide how hot, cold, wet, or windy it might be!

Date:

Astronomy

Apr. 26, 2014 Rise Set
Actual Time 6:10 AM CDT 7:52 PM CDT
Civil Twilight 5:41 AM CDT 8:20 PM CDT
Nautical Twilight 5:06 AM CDT 8:55 PM CDT
Astronomical Twilight 4:29 AM CDT 9:33 PM CDT
Moon 4:33 AM CDT (4/26) 5:21 PM CDT (4/26)
Length of Visible Light 14h 39m
Length of Day
13h 41m
Waning Crescent, 8% of the Moon is Illuminated
Apr 26
Waning Crescent
Apr 29
New
May 6
First Quarter
May 14
Full
May 21
Last Quarter

Hourly Weather History & Observations

Time (CDT) Temp. Dew Point Humidity Pressure Visibility Wind Dir Wind Speed Gust Speed Precip Events Conditions
12:15 AM 60.3 °F 43.0 °F 53% 29.88 in 10.0 mi SSW 4.6 mph - N/A   Clear
12:35 AM 60.4 °F 42.4 °F 51% 29.87 in 10.0 mi SSW 3.5 mph - N/A   Clear
12:55 AM 60.4 °F 41.9 °F 50% 29.87 in 10.0 mi SSW 5.8 mph - N/A   Clear
1:15 AM 61.9 °F 40.8 °F 46% 29.87 in 10.0 mi SSW 4.6 mph - N/A   Clear
1:35 AM 60.4 °F 41.0 °F 49% 29.86 in 10.0 mi SSW 6.9 mph - N/A   Clear
1:55 AM 60.4 °F 41.0 °F 49% 29.86 in 10.0 mi SSW 6.9 mph - N/A   Clear
2:15 AM 60.8 °F 40.8 °F 48% 29.85 in 10.0 mi SSW 5.8 mph - N/A   Clear
2:35 AM 61.7 °F 40.1 °F 45% 29.85 in 10.0 mi SSW 4.6 mph - N/A   Clear
2:55 AM 59.9 °F 40.5 °F 49% 29.85 in 10.0 mi SSW 5.8 mph - N/A   Clear
3:15 AM 59.9 °F 40.3 °F 48% 29.85 in 10.0 mi SSW 5.8 mph - N/A   Clear
3:35 AM 59.2 °F 40.5 °F 50% 29.85 in 10.0 mi South 6.9 mph - N/A   Clear
3:55 AM 57.9 °F 40.8 °F 53% 29.85 in 10.0 mi SSW 5.8 mph - N/A   Clear
4:15 AM 58.3 °F 40.5 °F 52% 29.85 in 10.0 mi SSW 5.8 mph - N/A   Clear
4:35 AM 58.1 °F 40.3 °F 52% 29.85 in 10.0 mi SSW 6.9 mph - N/A   Clear
4:55 AM 57.9 °F 40.3 °F 52% 29.86 in 10.0 mi SSW 6.9 mph - N/A   Clear
5:15 AM 59.2 °F 39.6 °F 48% 29.86 in 10.0 mi SSW 6.9 mph - N/A   Clear
5:35 AM 58.3 °F 39.7 °F 50% 29.86 in 10.0 mi SSW 5.8 mph - N/A   Clear
5:55 AM 58.5 °F 40.1 °F 51% 29.87 in 10.0 mi SSW 6.9 mph - N/A   Clear
6:15 AM 57.9 °F 40.1 °F 52% 29.87 in 10.0 mi SSW 5.8 mph - N/A   Clear
6:35 AM 58.3 °F 39.6 °F 50% 29.88 in 10.0 mi SSW 3.5 mph - N/A   Clear
6:55 AM 58.5 °F 40.1 °F 51% 29.88 in 10.0 mi SSW 4.6 mph - N/A   Clear
7:15 AM 60.4 °F 41.0 °F 49% 29.88 in 10.0 mi SW 4.6 mph - N/A   Clear
7:35 AM 61.3 °F 43.9 °F 53% 29.89 in 10.0 mi Calm Calm - N/A   Clear
7:55 AM 62.8 °F 43.2 °F 49% 29.89 in 10.0 mi Calm Calm - N/A   Clear
8:15 AM 64.4 °F 42.4 °F 45% 29.90 in 10.0 mi Calm Calm - N/A   Clear
8:35 AM 65.5 °F 41.7 °F 42% 29.89 in 10.0 mi Calm Calm - N/A   Clear
8:55 AM 66.7 °F 42.6 °F 42% 29.89 in 10.0 mi Calm Calm - N/A   Clear
9:15 AM 68.4 °F 43.0 °F 40% 29.90 in 10.0 mi SW 4.6 mph - N/A   Clear
9:35 AM 69.4 °F 43.2 °F 39% 29.91 in 10.0 mi SW 5.8 mph - N/A   Clear
9:55 AM 70.5 °F 42.6 °F 36% 29.91 in 10.0 mi SW 3.5 mph 9.2 mph N/A   Clear
10:15 AM 71.1 °F 42.1 °F 35% 29.91 in 10.0 mi SSW 3.5 mph - N/A   Clear
10:35 AM 72.5 °F 42.3 °F 34% 29.91 in 10.0 mi SW 6.9 mph - N/A   Clear
10:55 AM 73.4 °F 43.0 °F 34% 29.91 in 10.0 mi WSW 5.8 mph - N/A   Clear
11:15 AM 74.3 °F 43.2 °F 33% 29.91 in 10.0 mi South 3.5 mph - N/A   Clear
11:35 AM 75.0 °F 41.7 °F 30% 29.90 in 10.0 mi South 6.9 mph - N/A   Clear
11:55 AM 75.7 °F 41.2 °F 29% 29.89 in 10.0 mi South 4.6 mph - N/A   Clear
12:15 PM 76.3 °F 43.2 °F 31% 29.89 in 10.0 mi South 5.8 mph - N/A   Clear
12:35 PM 76.6 °F 43.2 °F 30% 29.89 in 10.0 mi South 4.6 mph - N/A   Clear
12:55 PM 77.5 °F 42.6 °F 29% 29.88 in 10.0 mi South 10.4 mph - N/A   Clear
1:15 PM 78.3 °F 41.2 °F 27% 29.88 in 10.0 mi South 12.7 mph 16.1 mph N/A   Clear
1:35 PM 79.0 °F 41.7 °F 26% 29.86 in 10.0 mi South 12.7 mph 17.3 mph N/A   Clear
1:55 PM 79.2 °F 40.8 °F 25% 29.86 in 10.0 mi SSW 8.1 mph - N/A   Clear
2:15 PM 79.7 °F 39.4 °F 24% 29.86 in 10.0 mi South 9.2 mph 19.6 mph N/A   Clear
2:35 PM 80.1 °F 39.2 °F 23% 29.85 in 10.0 mi South 11.5 mph 18.4 mph N/A   Clear
2:55 PM 79.7 °F 40.3 °F 24% 29.84 in 10.0 mi South 12.7 mph 16.1 mph N/A   Clear
3:15 PM 79.0 °F 40.6 °F 25% 29.82 in 10.0 mi SSE 10.4 mph - N/A   Clear
3:35 PM 79.9 °F 37.8 °F 22% 29.82 in 10.0 mi SSE 13.8 mph - N/A   Clear
3:55 PM 78.8 °F 38.7 °F 24% 29.81 in 10.0 mi SSE 15.0 mph 19.6 mph N/A   Clear
4:15 PM 79.2 °F 37.6 °F 22% 29.82 in 10.0 mi SSE 12.7 mph - N/A   Clear
4:35 PM 77.9 °F 36.1 °F 22% 29.81 in 10.0 mi SSE 10.4 mph - N/A   Clear
4:55 PM 77.4 °F 35.8 °F 22% 29.79 in 10.0 mi SSE 8.1 mph - N/A   Clear
5:15 PM 77.4 °F 36.5 °F 23% 29.78 in 10.0 mi SE 12.7 mph - N/A   Clear
5:35 PM 76.1 °F 36.1 °F 23% 29.78 in 10.0 mi SSE 9.2 mph - N/A   Clear
5:55 PM 74.8 °F 36.5 °F 25% 29.80 in 10.0 mi SSE 6.9 mph - N/A Thunderstorm Thunderstorm
6:15 PM 73.8 °F 37.2 °F 27% 29.80 in 10.0 mi SSE 10.4 mph - N/A   Scattered Clouds
6:35 PM 70.9 °F 42.1 °F 35% 29.81 in 10.0 mi SSE 8.1 mph - N/A Rain , Thunderstorm Light Thunderstorms and Rain
6:55 PM 70.7 °F 43.3 °F 37% 29.83 in 10.0 mi ESE 8.1 mph - N/A Rain , Thunderstorm Light Thunderstorms and Rain
7:15 PM 68.9 °F 45.9 °F 44% 29.82 in 10.0 mi ESE 8.1 mph - N/A Thunderstorm Unknown
7:35 PM 68.0 °F 48.0 °F 49% 29.79 in 10.0 mi ESE 11.5 mph 17.3 mph N/A   Clear
7:55 PM 67.5 °F 48.0 °F 50% 29.81 in 10.0 mi ESE 10.4 mph - N/A   Clear
8:15 PM 67.1 °F 49.1 °F 52% 29.80 in 10.0 mi SE 10.4 mph - N/A   Scattered Clouds
8:35 PM 66.9 °F 49.1 °F 53% 29.80 in 10.0 mi SSE 13.8 mph - N/A   Clear
8:55 PM 68.0 °F 50.0 °F 52% 29.80 in 10.0 mi SE 11.5 mph - N/A   Clear
9:15 PM 66.2 °F 50.7 °F 57% 29.83 in 10.0 mi South 9.2 mph - N/A   Clear
9:35 PM 66.2 °F 50.9 °F 58% 29.81 in 10.0 mi SE 12.7 mph - N/A   Clear
9:55 PM 66.4 °F 50.9 °F 57% 29.80 in 10.0 mi SSE 11.5 mph - N/A   Clear
10:15 PM 66.6 °F 50.5 °F 56% 29.80 in 10.0 mi SSE 12.7 mph - N/A   Clear
10:35 PM 66.6 °F 50.4 °F 56% 29.80 in 10.0 mi SSE 12.7 mph - N/A   Clear
10:55 PM 66.2 °F 50.2 °F 56% 29.81 in 10.0 mi SSE 6.9 mph - N/A   Clear
11:15 PM 65.8 °F 50.2 °F 57% 29.81 in 10.0 mi SE 4.6 mph - N/A   Clear
11:35 PM 65.5 °F 50.2 °F 58% 29.81 in 10.0 mi NE 4.6 mph - N/A   Clear
11:55 PM 64.0 °F 50.2 °F 61% 29.80 in 10.0 mi ENE 6.9 mph - N/A   Clear